Barcroft Research Lab Weather observations

Data are for 10 minute period ending at time listed.
 Day   Time   Solar   Ave.   Ave.  Ave.  Vector  Std.   Max.    Baro.    
  of    of     Rad.   Air    Rel.  Wind   Wind   Dev.   Wind   Press.    
Year   Day            Temp.  Hum.  Speed  Dir.   Dir.   Gust            
2014   (PST)  Kw/m2    F      %     mph   deg.   deg.    mph     mb.    
------------------------------------------------------------------------
 105    0:50       0   24.4    76    7.1   280    -99     8.5   644.60  
 105    1:00       0   24.5    76    7.3   277    -99     9.2   644.60  
 105    1:10       0   24.3    75    8.3   280    -99     9.3   644.20  
 105    1:20       0   25.5    73    7.7   278    -99     9.6   644.20  
 105    1:30       0   24.6    72    8.5   281    -99    10.1   644.20  
 105    1:40       0   24.3    72    7.9   289    -99     9.3   644.20  
 105    1:50       0   24.3    74    7.6   287    -99     8.4   644.20  
 105    2:00       0   24.4    75    7.4   286    -99     8.7   644.20  
 105    2:10       0   24.7    74    7.7   284    -99     8.8   643.80  
 105    2:20       0   24.8    72    8.1   283    -99     9.1   643.80  
 105    2:30       0   24.3    72    8.2   286    -99     9.2   643.80  
 105    2:40       0   24.1    72    8.4   281    -99    10.1   643.80  
 105    2:50       0   24.0    72    8.1   283    -99    10.2   643.80  
 105    3:00       0   23.4    74    8.0   288    -99     9.9   643.80  
 105    3:10       0   23.6    72    7.6   285    -99     9.7   643.40  
 105    3:20       0   23.7    69    7.5   293    -99     9.3   643.40  
 105    3:30       0   23.7    67    7.9   290    -99     9.8   643.40  
 105    3:40       0   23.5    66    8.2   288    -99     9.7   643.40  
 105    3:50       0   23.2    64    7.8   290    -99     9.6   643.40  
 105    4:00       0   23.3    61    8.7   281    -99    10.4   643.40  
 105    4:10       1   23.2    54    8.2   285    -99    10.2   643.10  
 105    4:20       5   22.4    54    7.6   290    -99     9.2   643.10  
 105    4:30      12   22.1    52    7.8   288    -99     9.6   643.10  
 105    4:40      21   21.8    50    7.3   290    -99     8.5   643.10  
 105    4:50      29   22.8    45    6.5   291    -99     8.7   643.10  
 105    5:00      42   22.6    43    7.2   286    -99     9.5   643.10  
 105    5:10      74   22.5    42    6.7   288    -99     8.4   643.20  
 105    5:20      84   22.4    43    6.7   288    -99     7.8   643.20  
 105    5:30     100   22.9    41    5.9   290    -99     7.3   643.20  
 105    5:40     132   24.4    37    5.3   298    -99     7.9   643.20  
 105    5:50     172   25.6    35    4.5   311    -99     7.9   643.20  
 105    6:00     159   25.2    37    3.6   329    -99     6.3   643.20  
 105    6:10     171   25.7    32    5.3   310    -99     9.4   643.10  
 105    6:20     276   27.1    26    7.7   306    -99    10.5   643.10  
 105    6:30     388   29.1    24    7.1   311    -99    10.2   643.10  
 105    6:40     331   29.3    25    6.3   310    -99     8.8   643.10  
 105    6:50     369   29.6    25    5.9   308    -99     8.8   643.10  
 105    7:00     487   30.8    26    4.7   313    -99     9.1   643.10  
 105    7:10     393   30.7    25    5.4   306    -99     8.3   643.20  
 105    7:20     616   30.9    26    4.0   325    -99     7.5   643.20  
 105    7:30     639   31.3    26    4.1   339    -99     6.8   643.20  
 105    7:40     692   31.6    26    4.0   336    -99     5.9   643.20  
 105    7:50     738   32.3    28    4.1   316    -99     7.7   643.20  
 105    8:00     750   33.2    22    5.2   313    -99    10.7   643.20  
 105    8:10     783   33.2    20    5.2   319    -99     8.8   643.30  
 105    8:20     808   34.0    20    6.6   302    -99    10.4   643.30  
 105    8:30     828   32.8    25    6.5   280    -99     9.1   643.30  
 105    8:40     854   33.1    24    4.3   292    -99     8.5   643.30  
 105    8:50     876   33.6    18    6.7   311    -99    12.1   643.30  
 105    9:00     901   33.8    21    5.8   292    -99     9.7   643.30  
 105    9:10     893   33.7    21    6.5   272    -99    10.9   643.40  
 105    9:20     869   32.9    22    7.9   273    -99    13.3   643.40  
 105    9:30     906   33.5    20    9.1   292    -99    18.3   643.40  
 105    9:40     851   33.3    21    8.3   290    -99    16.0   643.40  
 105    9:50    1012   33.6    20    9.5   292    -99    15.6   643.40  
 105   10:00     947   33.8    19   10.1   297    -99    15.8   643.40  
 105   10:10     998   34.2    20    9.7   301    -99    16.4   643.10  
 105   10:20    1003   34.6    19    9.4   309    -99    16.1   643.10  
 105   10:30     994   34.5    20   10.6   292    -99    15.6   643.10  
 105   10:40     992   33.5    22   10.2   273    -99    14.8   643.10  
 105   10:50     991   33.8    26   11.8   285    -99    18.9   643.10  
 105   11:00     988   33.7    29   11.8   276    -99    19.6   643.10  
 105   11:10     985   33.8    31   12.7   280    -99    20.1   642.70  
 105   11:20     981   34.6    31   10.0   282    -99    20.4   642.70  
 105   11:30     975   34.4    29   12.9   279    -99    21.2   642.70  
 105   11:40     967   34.6    30   11.9   280    -99    20.5   642.70  
 105   11:50     957   34.8    29   10.2   275    -99    21.3   642.70  
 105   12:00     944   35.2    28    9.7   285    -99    17.2   642.70  
 105   12:10     931   35.3    29   10.4   286    -99    18.7   642.60  
 105   12:20     915   35.5    29   11.4   294    -99    21.0   642.60  
 105   12:30     897   35.5    29   11.8   299    -99    17.9   642.60  
 105   12:40     879   35.7    29   13.5   302    -99    22.3   642.60  
 105   12:50     859   35.9    29   11.5   295    -99    18.8   642.60  
 105   13:00     838   35.8    29   13.7   295    -99    25.2   642.60  
 105   13:10     815   36.1    27   11.2   286    -99    22.1   642.40  
 105   13:20     791   36.3    26   13.6   306    -99    22.4   642.40  
 105   13:30     767   36.2    26   12.8   276    -99    27.8   642.40  
 105   13:40     740   36.1    26   13.1   301    -99    21.6   642.40  
 105   13:50     711   36.4    25   13.1   300    -99    21.0   642.40  
 105   14:00     680   36.5    24   12.6   311    -99    25.6   642.40  
 105   14:10     650   36.3    25   11.3   282    -99    18.2   642.10  
 105   14:20     618   36.1    26   13.5   295    -99    21.9   642.10  
 105   14:30     587   35.8    26   14.2   287    -99    23.4   642.10  
 105   14:40     552   36.5    25    8.8   295    -99    17.0   642.10  
 105   14:50     517   36.9    25    9.0   279    -99    15.5   642.10  
 105   15:00     481   36.6    27    9.7   291    -99    18.4   642.10  
 105   15:10     450   36.5    25   11.0   304    -99    21.3   642.00  
 105   15:20     416   36.6    24    9.3   304    -99    20.1   642.00  
 105   15:30     388   36.0    25   10.9   281    -99    19.6   642.00  
 105   15:40     337   35.6    25   12.0   298    -99    17.1   642.00  
 105   15:50     295   35.3    26    8.8   290    -99    16.2   642.00  
 105   16:00     235   34.6    27   10.9   288    -99    20.3   642.00  
 105   16:10      25   32.9    31    8.0   309    -99    18.9   642.00  
 105   16:20      27   32.4    32   11.0   300    -99    19.7   642.00  
 105   16:30      35   32.1    33    9.7   309    -99    16.5   642.00  
 105   16:40      34   32.1    34    7.7   323    -99    13.5   642.00  
 105   16:50      24   31.6    37    7.1   330    -99    14.0   642.00  
 105   17:00      28   31.2    48    6.0   315    -99    11.0   642.00  
 105   17:10      17   30.8    47    7.3   320    -99    12.1   641.80  
 105   17:20       6   30.0    51    6.4   320    -99    14.5   641.80  
 105   17:30       2   29.2    50    7.1   319    -99    16.4   641.80  
 105   17:40       0   29.0    51    4.8   318    -99    11.4   641.80  
 105   17:50       0   29.1    48    6.8   311    -99    13.2   641.80  
 105   18:00       0   28.2    52    6.2   284    -99    13.9   641.80  
 105   18:10       0   27.2    56    6.9   290    -99     9.7   641.70  
 105   18:20       0   27.1    54    7.8   305    -99    11.3   641.70  
 105   18:30       0   27.6    50   10.6   305    -99    15.1   641.70  
 105   18:40       0   27.2    52   11.0   304    -99    13.6   641.70  
 105   18:50       0   27.6    47   10.8   308    -99    14.4   641.70  
 105   19:00       0   27.0    49   11.1   308    -99    14.7   641.70  
 105   19:10       0   26.9    49   12.1   307    -99    14.5   641.80  
 105   19:20       0   26.3    50   11.6   305    -99    13.4   641.80  
 105   19:30       0   24.3    53   11.4   300    -99    12.9   641.80  
 105   19:40       0   23.8    55   11.3   302    -99    12.3   641.80  
 105   19:50       0   23.2    56   10.1   303    -99    11.8   641.80  
 105   20:00       0   22.7    57    8.7   301    -99    10.3   641.80  
 105   20:10       0   24.8    48    6.7   295    -99     9.1   641.80  
 105   20:20       0   25.1    47    7.6   291    -99     9.3   641.80  
 105   20:30       0   23.7    51    9.8   288    -99    11.2   641.80  
 105   20:40       0   23.6    51   10.2   280    -99    10.9   641.80  
 105   20:50       0   25.3    48    9.5   277    -99    11.2   641.80  
 105   21:00       0   25.4    48    9.4   278    -99    10.9   641.80  
 105   21:10       0   25.1    49    9.3   278    -99    13.6   641.40  
 105   21:20       0   26.5    46    9.1   276    -99    13.7   641.40  
 105   21:30       0   26.7    46    9.8   274    -99    13.6   641.40  
 105   21:40       0   26.6    48    9.6   273    -99    12.9   641.40  
 105   21:50       0   26.2    51   10.5   278    -99    16.8   641.40  
 105   22:00       0   26.0    52   11.0   278    -99    17.0   641.40  
 105   22:10       0   25.1    55   10.5   281    -99    13.8   641.30  
 105   22:20       0   25.0    56   11.3   282    -99    13.9   641.30  
 105   22:30       0   25.1    57   11.2   279    -99    16.0   641.30  
 105   22:40       0   25.5    56   10.7   278    -99    15.1   641.30  
 105   22:50       0   25.7    54   10.7   276    -99    17.5   641.30  
 105   23:00       0   25.8    55   11.7   276    -99    16.4   641.30  
 105   23:10       0   25.5    56   10.8   274    -99    15.8   640.90  
 105   23:20       0   25.5    57   12.0   274    -99    16.5   640.90  
 105   23:30       0   25.2    58   11.2   273    -99    17.8   640.90  
 105   23:40       0   25.4    57   12.3   273    -99    18.2   640.90  
 105   23:50       0   25.1    59   11.8   277    -99    18.1   640.90  
 106    0:00       0   24.7    60   11.4   274    -99    19.1   640.90  
 106    0:10       0   24.8    60   11.1   276    -99    16.1   640.40  
 106    0:20       0   25.1    59   10.9   273    -99    15.9   640.40  
 106    0:30       0   25.4    58   11.0   268    -99    16.2   640.40  
 106    0:40       0   25.9    56   10.2   265    -99    16.4   640.40  

Return to Barcroft Research Lab graphs page.


Western Regional Climate Center,wrcc@dri.edu